Location: Powder Track
(41.8531°N, 72.3584°W)
Time: 07:24:51
(UTC+00:00)

Courier 1B Rocket - Visible Passes

Search period start: 24 July 2021 00:00
Search period end: 03 August 2021 00:00
Orbit: 920 x 1202 km, 28.2° (Epoch: 23 July)

Date Brightness Start Highest point End Pass type
(mag) Time Alt. Az. Time Alt. Az. Time Alt. Az.
25 Jul 6.9 08:08:02 10° S 08:09:55 11° SSE 08:11:46 10° SE visible
26 Jul 6.5 08:57:23 10° SSW 09:01:32 18° SSE 09:05:39 10° SE visible
27 Jul 6.6 07:58:55 14° S 08:00:50 15° SSE 08:04:19 10° SE visible
28 Jul 7.0 07:01:32 11° SE 07:01:32 11° SE 07:02:27 10° SE visible
28 Jul 6.3 08:47:55 10° SW 08:52:31 21° S 08:57:04 10° SE visible
29 Jul 6.3 07:50:31 18° S 07:51:47 19° SSE 07:56:03 10° SE visible
30 Jul 6.8 06:53:08 14° SE 06:53:08 14° SE 06:54:50 10° SE visible
30 Jul 6.2 08:39:30 13° SW 08:43:31 23° S 08:48:18 10° SE visible
31 Jul 6.2 07:42:09 22° S 07:42:47 22° S 07:47:29 10° SE visible
01 Aug 6.8 06:44:50 15° SE 06:44:50 15° SE 06:46:32 10° ESE visible
01 Aug 6.1 08:31:12 16° SW 08:34:32 23° S 08:39:22 10° SE visible
02 Aug 6.1 07:33:56 24° S 07:33:56 24° S 07:38:43 10° SE visible
